Theta_e
332 339 347 349 347 344 342 340 345 348 348 346 344 343 342 340 339 337 337 336 336 336 336 335 335 336 335 338 336 336 336 336 336 338 340 340 335 336 336 335 334 330 335
335 341 345 348 348 345 343 343 345 346 347 346 344 342 341 340 338 337 336 335 335 335 334 335 334 334 333 336 335 334 333 333 333 334 335 336 338 334 335 335 335 331 334
337 340 343 347 348 345 345 344 345 347 347 345 344 342 340 338 338 336 335 338 335 335 334 333 333 334 334 333 333 332 332 332 333 332 331 324 326 334 335 333 333 334 334
337 339 341 343 346 346 345 345 345 346 345 345 343 341 339 337 336 335 334 335 334 334 334 332 332 331 330 330 331 331 330 333 333 331 324 325 328 333 332 331 331 330 331
336 338 340 343 346 346 345 346 346 345 346 344 342 340 339 338 335 334 334 334 334 332 333 333 332 331 329 329 329 329 329 329 329 326 322 322 322 328 330 330 329 330 329
335 337 339 343 345 345 345 346 346 345 345 343 340 340 339 336 335 334 333 334 333 333 332 332 331 329 327 327 327 327 327 325 321 317 319 324 321 328 328 327 327 327 326
334 336 338 342 343 344 345 345 346 347 345 344 341 340 339 337 335 335 333 332 332 332 331 330 328 327 325 324 323 324 324 323 312 313 318 319 321 329 329 328 328 328 328
335 336 337 336 338 342 344 344 344 344 344 343 341 340 338 337 336 334 333 332 331 330 330 328 327 325 324 323 322 321 322 323 316 312 313 316 322 325 325 328 329 329 329
336 337 337 338 337 336 339 340 342 342 342 342 341 339 338 337 337 336 335 332 331 330 329 327 325 325 324 323 322 323 323 322 313 314 316 314 323 326 325 326 328 329 330
335 336 336 336 336 338 338 333 335 337 338 338 337 335 333 333 334 333 331 332 330 329 327 326 325 324 323 324 326 326 323 322 311 313 316 314 324 328 328 328 330 331 331
333 334 335 336 336 335 334 331 330 332 332 332 331 329 328 328 329 327 326 330 331 329 327 326 324 324 326 325 325 324 324 316 314 314 315 320 326 329 330 331 331 332 332
328 330 332 335 335 334 336 331 332 332 331 330 329 327 327 325 324 325 322 326 330 329 330 328 327 327 324 317 317 319 317 316 315 315 316 323 328 331 331 333 333 333 334
329 330 331 332 334 334 334 331 330 329 328 328 325 324 323 323 320 320 319 322 322 320 320 322 320 318 318 317 317 316 316 315 314 315 318 323 328 331 332 333 334 335 335
328 329 330 332 332 333 329 328 327 326 324 324 323 322 320 318 317 317 317 318 319 318 316 315 315 316 316 317 318 317 317 316 316 317 318 320 325 331 333 334 335 336 336
326 328 329 331 331 331 328 327 325 324 324 323 323 321 320 318 317 316 316 317 317 316 315 314 314 315 316 317 317 317 317 318 318 318 318 318 322 328 333 335 336 336 336
326 326 329 330 330 330 327 325 324 324 323 323 322 322 320 319 317 316 316 316 315 316 316 315 315 315 315 316 317 318 318 318 319 319 320 320 322 326 330 334 335 336 335
326 327 327 328 329 328 327 324 324 324 323 323 322 321 321 319 318 317 317 316 317 317 316 315 315 314 314 316 316 318 319 320 320 320 321 321 322 321 324 330 333 333 333
326 326 327 329 327 326 326 324 324 324 323 323 323 322 322 321 319 317 317 317 317 316 316 314 314 314 314 314 315 317 318 320 321 322 322 323 323 323 324 326 329 330 330
323 326 326 327 326 326 326 325 325 325 324 324 324 322 322 322 321 319 318 317 317 316 315 314 314 314 313 314 316 318 319 319 320 322 322 323 323 324 323 322 321 321 326
322 325 327 326 326 325 326 326 325 325 325 325 324 323 322 323 322 320 318 318 317 315 315 315 315 315 315 316 318 319 319 321 321 320 321 323 323 324 322 320 319 319 324
325 322 326 326 325 325 324 323 323 323 324 326 327 326 324 323 322 320 320 318 317 317 317 317 317 316 316 318 319 319 321 322 320 320 321 321 322 321 320 320 320 319 316
325 321 324 326 326 325 326 326 325 325 326 326 327 327 324 323 322 322 320 319 318 319 318 319 319 318 319 321 317 320 315 314 316 319 319 321 320 321 320 320 319 315 310
324 324 321 325 326 326 327 327 324 325 325 323 324 325 325 323 323 322 321 321 320 320 320 320 320 320 320 322 324 319 312 311 314 318 318 318 319 319 318 318 312 309 305
323 327 326 323 325 325 327 326 324 323 321 324 324 324 324 323 323 323 323 322 321 322 321 321 322 322 320 320 318 321 320 318 314 310 316 318 319 314 315 312 309 305 305
314 318 326 325 323 325 325 326 325 324 325 324 323 322 323 323 323 323 323 323 322 322 322 322 322 322 324 323 320 317 319 320 320 317 313 315 315 313 311 306 305 302 300
307 309 311 319 321 324 324 324 323 323 323 322 320 321 322 322 323 323 323 323 324 324 323 323 324 325 324 324 323 322 320 318 317 316 314 312 311 309 306 302 300 299 296
Wind_Speed
7 11 15 16 17 16 14 14 12 15 18 17 16 15 15 15 15 14 13 11 12 12 11 13 13 12 12 15 15 14 15 13 13 14 12 15 15 14 13 12 9 7 12
12 13 15 16 18 16 14 13 12 16 17 17 15 15 15 15 14 13 12 12 12 12 12 12 12 13 14 13 12 11 9 7 7 8 11 11 12 12 12 11 10 8 11
15 12 12 16 17 16 15 13 13 15 16 15 14 14 13 13 13 12 11 10 12 13 12 12 12 11 11 11 10 9 8 6 8 8 8 4 4 10 10 10 9 9 9
15 12 11 14 17 17 16 14 13 14 15 15 14 14 13 12 12 12 11 11 12 12 13 11 11 10 9 9 9 9 9 8 10 7 3 3 3 8 8 8 7 7 7
13 12 11 14 17 17 15 14 13 14 15 16 14 14 14 13 12 12 11 11 11 11 11 10 10 8 7 7 7 9 10 9 5 5 3 3 2 4 6 6 6 6 5
12 11 12 15 17 18 15 13 13 13 16 16 14 14 14 13 12 11 11 9 9 11 10 10 7 6 6 5 6 8 9 8 6 3 2 1 2 3 4 4 4 3 3
10 9 12 15 16 17 17 14 12 17 16 17 14 14 13 12 12 10 11 10 9 9 8 8 6 5 4 4 5 6 6 6 3 1 1 2 2 2 2 2 3 4 4
12 10 11 13 14 15 16 15 12 16 16 16 16 14 14 14 13 12 10 10 10 9 8 6 5 4 2 1 1 2 3 4 3 1 1 2 5 3 2 2 2 3 4
10 12 9 10 12 13 12 13 12 14 14 16 18 16 14 13 12 11 10 10 9 8 7 6 4 3 2 2 3 3 3 3 1 2 3 3 7 6 3 4 4 4 5
10 13 14 7 8 9 9 13 13 13 12 13 13 14 11 11 11 11 9 9 10 9 7 6 5 4 4 5 5 5 5 5 2 3 3 3 8 8 5 5 6 6 5
11 14 14 12 8 7 7 9 12 13 12 11 12 11 10 5 7 8 8 10 10 8 8 7 6 6 6 7 7 8 7 2 3 3 3 7 8 9 8 7 7 7 8
17 15 14 13 13 9 7 7 7 7 6 6 6 7 6 6 5 6 7 10 10 9 8 8 7 6 4 2 3 4 1 3 3 3 3 8 9 9 9 9 8 9 9
17 14 15 15 14 12 9 6 4 4 4 5 7 6 6 5 4 4 3 3 3 6 3 3 3 2 3 3 3 3 3 3 3 3 4 7 7 8 9 9 9 8 9
18 17 17 16 15 12 7 7 6 5 5 5 5 7 5 3 4 4 3 4 4 3 4 4 3 3 4 5 5 5 5 4 3 3 4 7 8 9 10 10 10 10 9
15 16 17 16 16 12 10 7 7 6 6 7 7 7 6 5 5 4 5 4 4 4 4 4 4 4 4 5 5 5 6 5 5 3 3 8 9 10 10 11 11 10 9
15 15 14 16 14 12 10 10 8 7 7 6 6 8 8 6 5 5 4 5 4 4 4 4 4 4 4 4 5 5 6 5 5 5 4 4 8 9 11 10 9 9 8
15 14 16 15 14 13 12 10 8 7 7 7 7 7 9 8 7 7 6 5 6 5 6 4 4 3 4 3 5 5 4 5 5 5 4 4 4 6 7 8 7 6 5
14 18 15 14 15 14 13 9 8 8 8 8 7 7 9 9 9 6 6 6 5 4 4 3 4 3 4 3 3 4 4 5 6 6 4 4 4 3 4 6 5 3 3
14 15 17 16 16 15 13 10 10 11 9 8 8 7 10 11 10 8 7 6 6 4 4 4 4 3 3 4 4 4 5 4 6 4 6 6 6 4 3 4 1 4 9
10 14 15 15 15 15 10 9 8 9 9 9 9 9 10 10 11 9 6 7 5 4 4 4 5 4 4 4 4 4 5 5 4 4 5 4 4 4 2 1 2 6 13
10 12 17 16 17 13 11 11 10 11 10 11 10 12 11 11 10 10 7 6 5 6 7 6 4 6 4 4 1 4 4 6 5 4 4 4 2 1 3 4 3 5 7
13 15 17 19 17 16 13 13 11 10 10 10 8 9 11 10 11 11 10 8 8 6 6 6 6 3 4 4 4 2 3 4 2 2 0 1 3 4 5 7 8 10 7
12 13 15 19 20 18 19 10 4 6 7 8 8 8 9 12 12 12 12 9 9 8 7 8 7 8 6 4 7 3 1 4 1 2 4 3 5 5 5 8 10 10 9
10 12 14 16 17 17 17 13 17 15 13 13 10 7 7 10 12 12 12 12 10 8 9 8 7 8 4 6 2 5 3 3 2 2 2 3 6 6 8 7 8 9 9
7 8 10 12 16 15 15 17 14 14 12 8 9 9 10 8 11 12 12 11 11 8 10 10 7 8 7 8 6 2 4 5 5 4 3 2 5 3 8 9 8 7 9
9 9 9 11 10 13 15 17 16 18 13 9 8 9 7 6 8 11 11 10 11 11 11 10 11 11 9 7 5 6 6 3 3 3 2 3 4 5 8 7 7 7 7
Wind_Direction
180 163 165 162 158 151 151 156 158 154 144 139 135 130 125 120 117 116 116 116 114 102 101 91 94 88 93 82 84 79 70 64 46 55 60 75 82 78 80 77 67 65 71
148 158 162 163 157 156 156 163 151 149 147 138 135 132 128 122 121 121 119 118 111 109 106 99 95 101 106 95 86 77 70 67 62 69 53 51 75 80 81 85 75 70 69
148 155 160 160 158 154 155 165 160 151 141 135 135 133 131 126 127 120 118 117 119 109 104 100 99 100 102 97 85 74 60 62 115 103 88 74 80 90 85 76 72 73 78
147 155 160 160 160 156 159 166 169 161 145 138 140 140 136 133 128 134 125 123 124 117 112 108 106 104 103 98 87 70 55 88 125 112 89 72 44 97 95 91 83 71 58
148 154 162 160 160 156 161 169 175 165 151 142 145 143 140 135 136 130 128 128 127 126 114 115 109 100 94 87 78 74 72 78 96 101 89 72 42 89 91 85 77 72 57
151 152 161 162 157 153 164 169 183 182 158 142 149 146 145 143 140 139 133 120 124 129 128 111 110 105 90 67 53 47 56 58 62 54 26 48 37 66 64 54 57 65 50
152 151 158 165 161 158 165 178 186 172 157 146 148 148 145 145 147 147 140 140 128 129 123 127 125 114 96 63 44 44 43 53 76 84 293 332 320 15 46 26 354 350 351
152 158 163 166 164 164 169 175 172 165 157 150 149 150 152 153 155 155 154 147 141 140 143 144 144 148 138 103 31 21 26 41 74 129 250 244 260 263 284 289 296 298 300
153 158 166 172 167 163 166 166 168 166 167 162 153 153 157 157 157 158 156 155 159 159 164 166 178 192 216 262 292 318 323 319 189 230 250 229 249 246 246 249 254 267 286
156 169 172 168 169 169 168 164 162 163 159 153 147 153 155 158 155 152 154 165 174 178 180 192 211 232 255 270 286 300 321 344 334 306 284 262 249 261 280 283 276 275 278
171 176 178 171 171 167 161 165 159 156 162 156 149 158 156 155 156 158 166 174 181 189 198 213 228 248 272 298 314 322 319 324 316 298 292 290 276 272 288 300 295 298 296
181 185 184 179 178 164 168 158 155 157 157 154 152 156 154 156 162 169 179 185 186 191 208 226 244 260 299 305 297 322 315 285 292 291 287 292 286 273 288 303 306 304 303
183 183 189 184 180 174 169 167 164 160 158 160 160 162 164 166 171 173 182 197 187 203 219 252 276 267 255 258 273 280 273 270 263 274 280 288 301 279 284 291 296 295 293
183 187 187 187 183 179 162 172 170 169 165 167 175 169 162 165 176 187 191 199 190 193 214 231 241 255 264 264 261 278 274 266 266 271 268 272 279 280 281 287 290 292 293
193 188 190 189 187 179 175 175 174 180 179 180 176 179 172 176 186 183 196 189 198 189 206 222 228 241 250 265 263 260 274 278 272 262 260 270 270 269 272 281 289 292 293
189 192 185 190 188 182 185 183 183 179 183 181 184 188 183 181 181 187 196 202 204 196 204 207 214 224 242 243 259 252 260 265 266 267 265 273 272 282 289 292 299 306 311
195 183 190 188 188 187 191 185 184 187 182 186 192 192 190 188 192 187 193 200 211 202 206 210 228 228 240 241 255 267 269 270 269 268 265 262 278 282 279 290 294 307 318
189 192 185 188 192 191 190 187 187 188 190 194 192 194 196 194 192 190 192 207 208 197 192 195 207 231 241 247 264 265 260 261 258 253 263 261 260 256 256 246 256 294 309
201 192 193 191 189 191 192 188 190 190 195 198 194 195 196 197 197 191 195 201 192 189 191 200 216 197 222 250 250 259 263 255 248 248 250 252 252 243 237 246 290 21 23
198 203 201 195 189 187 189 191 198 195 198 199 193 198 196 203 197 189 198 203 182 182 201 195 202 200 212 228 249 259 249 249 245 238 251 259 255 255 224 220 90 63 59
202 190 196 199 198 180 188 192 194 201 198 207 201 196 196 200 188 192 203 191 184 195 205 199 193 208 234 229 268 280 270 255 257 244 230 233 254 106 103 79 65 81 63
227 204 204 199 197 195 196 197 200 196 208 209 186 189 194 194 197 196 195 194 192 195 200 201 200 200 219 189 203 222 292 323 336 5 240 160 120 108 75 69 72 74 67
221 223 213 211 204 201 204 191 172 183 206 206 194 193 194 193 199 202 194 197 196 195 204 208 205 210 217 210 203 182 223 238 316 14 42 82 95 80 59 79 85 81 75
249 237 228 220 212 206 200 194 197 202 204 216 206 190 197 195 200 202 198 197 198 197 205 203 209 212 189 226 193 228 221 171 240 312 51 79 78 70 96 81 84 73 70
13 337 284 247 222 212 198 201 203 213 222 210 206 190 190 197 204 206 203 200 198 199 207 205 203 207 206 222 214 173 213 212 218 222 201 157 99 50 75 72 66 66 60
17 2 354 335 254 214 202 204 203 213 213 206 201 210 195 199 204 209 207 205 206 206 201 207 208 212 212 219 220 210 203 175 176 170 188 135 127 81 77 69 72 65 49